[[{"header":{"parameterUnit":"m.s-1","parameterCategory":1,"la1":30.2991,"la2":30.254,"lo1":-89.0895,"lo2":-89.0444,"dy":0.0017,"dx":0.0017,"nx":28,"ny":28,"refTime":"2026-02-17T03:00:00:Z","depth":0,"parameterNumber":2,"parameterNumberName":"U-component_of_WINDS"},"data":[0,0,0,0,0,0,0,0,0,0,0,0,0,0,0,0,0,0,0,0,0,0,0,0,0,0,0,0,0,0,0,0,0,0,0,0,0,0,0,0,0,0,0,0,0,0,0,0,0,0,0,0,0,0,0,0,0,0,-0.5897,-0.5897,0,-0.5888,-0.5888,-0.5888,-0.5862,-0.5861,-0.5861,-0.586,-0.5853,-0.5853,-0.5853,0,0,0,0,0,0,0,0,0,0,0,0,0,-0.5893,-0.5893,-0.5897,-0.5897,-0.5897,-0.5888,-0.5888,-0.5888,-0.5862,-0.5861,-0.5861,-0.586,-0.5852,-0.5853,-0.5853,0,0,0,0,0,0,0,0,0,0,0,0,0,-0.589,-0.5893,-0.5897,-0.5883,-0.5881,-0.5888,-0.5888,-0.5888,-0.5862,-0.5861,-0.586,-0.586,-0.5852,-0.5853,-0.5853,-0.5874,0,0,-0.5855,-0.5855,0,0,0,0,0,0,0,0,-0.589,-0.589,-0.5885,-0.5884,-0.5882,-0.5875,-0.5884,-0.5883,-0.5862,-0.5869,-0.586,-0.5859,-0.5861,-0.5861,-0.5861,-0.5873,-0.5873,-0.5855,-0.5855,-0.5855,-0.5855,0,0,0,0,0,0,0,-0.5891,-0.5891,-0.5893,-0.5885,-0.5883,-0.5877,-0.5876,-0.5883,-0.587,-0.5869,-0.5867,-0.5866,-0.586,-0.586,-0.586,-0.5873,-0.5855,-0.5855,-0.5856,-0.5856,-0.5901,-0.5902,0,0,0,0,0,0,-0.5893,-0.5891,-0.5894,-0.5893,-0.5884,-0.5878,-0.5876,-0.5878,-0.587,-0.5868,-0.5867,-0.5865,-0.586,-0.586,-0.586,-0.5884,-0.5855,-0.5856,-0.5856,-0.59,-0.5902,-0.5903,0,0,0,0,0,0,-0.5893,-0.5893,-0.5894,-0.5892,-0.5891,-0.5879,-0.5881,-0.5879,-0.5879,-0.5868,-0.5866,-0.587,-0.5859,-0.5859,-0.587,-0.5883,-0.5856,-0.5856,-0.5899,-0.5901,-0.5902,-0.5931,0,0,0,0,0,0,-0.5893,-0.5893,-0.5901,-0.5892,-0.5891,-0.5904,-0.5882,-0.5879,-0.588,-0.5877,-0.5871,-0.5869,-0.5859,-0.587,-0.5871,-0.5883,-0.5857,-0.5898,-0.59,-0.5902,-0.5929,-0.5933,-0.5937,0,0,0,0,0,-0.5892,-0.591,-0.5901,-0.5902,-0.59,-0.5905,-0.5905,-0.5893,-0.5881,-0.5889,-0.5882,-0.5869,-0.5881,-0.5871,-0.5872,-0.5885,-0.5897,-0.5899,-0.5901,-0.5927,-0.5933,-0.5937,0,0,0,0,0,0,-0.5921,-0.5908,-0.5899,-0.5914,-0.5911,-0.5901,-0.591,-0.5899,-0.5899,-0.5897,-0.5882,-0.5881,-0.5894,-0.589,-0.5879,-0.5904,-0.5887,-0.589,-0.5906,-0.5911,-0.5915,-0.5917,-0.5857,0,0,0,0,0,-0.5929,-0.5934,-0.5922,-0.5936,-0.5935,-0.5923,-0.5924,-0.5915,-0.5912,-0.591,-0.5904,-0.5902,-0.5905,-0.5908,-0.591,-0.5928,-0.5926,-0.5937,-0.5941,-0.5944,-0.5947,-0.5957,-0.5961,-0.5909,-0.5909,-0.5909,0,0,-0.5946,-0.5939,-0.5943,-0.5942,-0.5938,-0.5944,-0.5922,-0.5929,-0.5933,-0.5912,-0.5922,-0.5917,-0.5913,-0.5928,-0.5934,-0.5925,-0.5961,-0.5947,-0.595,-0.5951,-0.5959,-0.5964,-0.5969,-0.5911,-0.591,-0.591,0,0,-0.598,-0.5975,-0.5986,-0.5983,-0.5977,-0.5969,-0.5972,-0.5963,-0.5959,-0.5969,-0.5953,-0.5957,-0.5963,-0.5961,-0.5961,-0.5992,-0.5981,-0.5993,-0.6015,-0.6025,-0.6029,-0.6032,-0.6045,-0.6049,-0.5996,-0.5996,-0.5996,0,-0.6001,-0.6009,-0.5993,-0.6001,-0.6001,-0.5981,-0.5993,-0.599,-0.5986,-0.5987,-0.5977,-0.5984,-0.5979,-0.5993,-0.6001,-0.6001,-0.6004,-0.5995,-0.6029,-0.6033,-0.6036,-0.6047,-0.6052,-0.5998,-0.5997,-0.5997,-0.5997,0,-0.6036,-0.6041,-0.6051,-0.6047,-0.6048,-0.6058,-0.6044,-0.6047,-0.6037,-0.603,-0.604,-0.6034,-0.6035,-0.6037,-0.6027,-0.6049,-0.6044,-0.6032,-0.6015,-0.6043,-0.6053,-0.6058,-0.6,-0.5999,-0.5999,-0.5998,0,0,-0.609,-0.6076,-0.608,-0.6078,-0.607,-0.6074,-0.6082,-0.6083,-0.6086,-0.6083,-0.6091,-0.6095,-0.6084,-0.6083,-0.6073,-0.6081,-0.6107,-0.6068,-0.6067,-0.6076,-0.6132,-0.6143,-0.6148,-0.6099,-0.61,-0.61,-0.6133,0,-0.6123,-0.6136,-0.6122,-0.6139,-0.6144,-0.6124,-0.6131,-0.6128,-0.612,-0.6124,-0.6116,-0.612,-0.6104,-0.6103,-0.611,-0.6103,-0.6119,-0.61,-0.6107,-0.6107,-0.611,-0.6154,-0.6165,-0.6196,-0.6137,-0.6138,-0.6138,0,-0.6163,-0.6162,-0.6179,-0.617,-0.6171,-0.6178,-0.6177,-0.618,-0.6175,-0.6169,-0.6168,-0.6156,-0.6164,-0.6146,-0.6157,-0.6144,-0.6146,-0.6143,-0.6143,-0.6145,-0.6126,-0.6158,-0.6206,-0.6211,-0.6144,-0.6144,-0.6143,0,-0.6202,-0.6205,-0.6215,-0.6214,-0.6203,-0.6208,-0.6204,-0.6198,-0.6199,-0.6198,-0.6198,-0.6198,-0.6199,-0.6199,-0.6187,-0.6174,-0.62,-0.618,-0.6196,-0.6197,-0.6204,-0.6204,-0.6255,-0.6202,-0.6202,-0.6202,-0.6202,0,-0.6241,-0.6253,-0.6233,-0.6239,-0.6252,-0.6235,-0.6248,-0.6241,-0.6236,-0.6242,-0.6224,-0.6229,-0.6212,-0.6216,-0.6206,-0.6217,-0.6217,-0.6213,-0.6211,-0.6216,-0.6217,-0.6218,-0.6216,-0.6203,-0.6203,-0.6203,-0.6203,0,-0.6288,-0.6275,-0.6285,-0.6273,-0.627,-0.628,-0.627,-0.6276,-0.6267,-0.6274,-0.6275,-0.6261,-0.6264,-0.6251,-0.6253,-0.6246,-0.6263,-0.6256,-0.6265,-0.6264,-0.6281,-0.628,-0.6335,-0.6342,-0.6284,-0.6285,-0.6285,0,-0.6315,-0.6323,-0.6312,-0.6314,-0.631,-0.6314,-0.6314,-0.6298,-0.6299,-0.6294,-0.63,-0.6302,-0.6303,-0.6309,-0.63,-0.6301,-0.6295,-0.6314,-0.6295,-0.63,-0.6297,-0.6297,-0.6298,-0.6319,-0.6319,-0.632,-0.632,0,-0.6365,-0.6357,-0.6358,-0.6357,-0.6358,-0.6356,-0.6354,-0.6356,-0.6338,-0.6341,-0.6344,-0.6344,-0.6345,-0.6347,-0.6346,-0.6342,-0.6329,-0.6326,-0.633,-0.6336,-0.6342,-0.634,-0.6278,-0.6325,-0.6325,-0.6325,-0.6324,-0.6324,-0.6403,-0.641,-0.6403,-0.6405,-0.64,-0.6398,-0.6403,-0.6394,-0.6396,-0.6395,-0.6385,-0.639,-0.6384,-0.6381,-0.6378,-0.6382,-0.6373,-0.6378,-0.638,-0.6382,-0.6386,-0.6339,-0.6381,-0.6381,-0.6381,-0.6381,-0.6381,0,-0.6453,-0.6447,-0.6449,-0.6445,-0.6447,-0.6432,-0.6428,-0.6431,-0.6435,-0.643,-0.6431,-0.6434,-0.6436,-0.6426,-0.6426,-0.6431,-0.6425,-0.6432,-0.6433,-0.6432,-0.6393,-0.639,-0.6437,-0.6437,-0.6437,-0.6437,-0.6437,-0.6437,-0.648,-0.649,-0.6482,-0.649,-0.6484,-0.6488,-0.6487,-0.6485,-0.6481,-0.6485,-0.6487,-0.6479,-0.6473,-0.6472,-0.6473,-0.647,-0.6472,-0.6481,-0.6477,-0.644,-0.6435,-0.643,-0.6427,-0.6481,-0.6482,-0.6516,-0.6516,-0.6516]},{"header":{"parameterUnit":"m.s-1","parameterCategory":1,"la1":30.2991,"la2":30.254,"lo1":-89.0895,"lo2":-89.0444,"dy":0.0017,"dx":0.0017,"nx":28,"ny":28,"refTime":"2026-02-17T03:00:00:Z","depth":0,"parameterNumber":3,"parameterNumberName":"V-component_of_WINDS"},"data":[0,0,0,0,0,0,0,0,0,0,0,0,0,0,0,0,0,0,0,0,0,0,0,0,0,0,0,0,0,0,0,0,0,0,0,0,0,0,0,0,0,0,0,0,0,0,0,0,0,0,0,0,0,0,0,0,0,0,2.339,2.3391,0,2.3553,2.3555,2.3557,2.3589,2.3587,2.3586,2.3585,2.3752,2.3758,2.3763,0,0,0,0,0,0,0,0,0,0,0,0,0,2.3104,2.3109,2.3389,2.3391,2.3393,2.3553,2.3555,2.3557,2.3589,2.3587,2.3586,2.3584,2.375,2.3757,2.3764,0,0,0,0,0,0,0,0,0,0,0,0,0,2.3244,2.3111,2.3389,2.3428,2.3434,2.3552,2.3555,2.3558,2.3589,2.3587,2.3585,2.3583,2.3748,2.3756,2.3765,2.3856,0,0,2.3791,2.3794,0,0,0,0,0,0,0,0,2.3236,2.3254,2.3421,2.3426,2.3432,2.3548,2.3516,2.3658,2.359,2.353,2.3585,2.3583,2.3686,2.3699,2.3734,2.3864,2.3871,2.3791,2.3797,2.38,2.3803,0,0,0,0,0,0,0,2.3226,2.3247,2.3454,2.3423,2.343,2.3438,2.3455,2.3543,2.3617,2.3535,2.3538,2.3557,2.3689,2.3726,2.3739,2.3873,2.3791,2.3799,2.3804,2.3807,2.4084,2.4086,0,0,0,0,0,0,2.3209,2.3239,2.3449,2.3459,2.3327,2.3444,2.3464,2.3513,2.3616,2.363,2.3558,2.3558,2.3713,2.3729,2.3745,2.3857,2.38,2.3808,2.3813,2.4081,2.4084,2.4086,0,0,0,0,0,0,2.3203,2.3228,2.3442,2.335,2.3378,2.3451,2.3506,2.3517,2.3555,2.3633,2.3647,2.3583,2.3712,2.3733,2.3827,2.3863,2.3812,2.382,2.4079,2.4082,2.4085,2.4082,0,0,0,0,0,0,2.3195,2.3225,2.3261,2.335,2.3383,2.3523,2.3508,2.3522,2.3569,2.357,2.366,2.3673,2.3712,2.3815,2.3836,2.3874,2.3826,2.4076,2.408,2.4084,2.408,2.4085,2.409,0,0,0,0,0,2.3184,2.3254,2.3263,2.3288,2.3429,2.3525,2.3543,2.3586,2.3572,2.3608,2.3658,2.367,2.3856,2.3824,2.3848,2.3889,2.4074,2.4079,2.4084,2.4077,2.4084,2.409,0,0,0,0,0,0,2.3167,2.3266,2.3277,2.3378,2.3442,2.353,2.3577,2.3592,2.3663,2.3661,2.3711,2.3731,2.3823,2.3866,2.3829,2.3982,2.3964,2.3974,2.3951,2.3958,2.3963,2.395,2.3833,0,0,0,0,0,2.3175,2.3245,2.3328,2.3409,2.344,2.3503,2.3547,2.3574,2.3643,2.3671,2.3728,2.3795,2.3868,2.3915,2.3987,2.4086,2.4105,2.4126,2.4131,2.4135,2.4143,2.4197,2.4207,2.4103,2.4103,2.4103,0,0,2.3192,2.3255,2.3296,2.3407,2.346,2.3531,2.3526,2.3602,2.3655,2.3683,2.3775,2.382,2.3897,2.3994,2.404,2.4033,2.4176,2.4142,2.4144,2.415,2.4203,2.4213,2.4222,2.4107,2.4106,2.4105,0,0,2.3259,2.3314,2.3387,2.344,2.3521,2.3562,2.3579,2.3664,2.3695,2.3789,2.3811,2.3874,2.4,2.4054,2.4097,2.4183,2.4196,2.4205,2.4232,2.4285,2.4293,2.43,2.433,2.434,2.4213,2.4213,2.4213,0,2.327,2.3378,2.3422,2.3497,2.3544,2.3572,2.3646,2.3695,2.3795,2.3827,2.3818,2.3975,2.403,2.4139,2.4159,2.4194,2.4215,2.4195,2.4288,2.4296,2.4304,2.4332,2.4343,2.4214,2.4214,2.4214,2.4213,0,2.3387,2.3461,2.351,2.3605,2.3659,2.3732,2.3787,2.3835,2.3858,2.3899,2.3994,2.406,2.4145,2.4173,2.4196,2.4285,2.4278,2.4278,2.4261,2.4313,2.4341,2.4352,2.4214,2.4214,2.4214,2.4214,0,0,2.3448,2.3566,2.3583,2.3626,2.3717,2.3775,2.385,2.3932,2.3972,2.404,2.4103,2.4208,2.4208,2.4258,2.4287,2.4333,2.4395,2.4327,2.4329,2.4336,2.4496,2.4495,2.4507,2.4404,2.4406,2.4408,2.4489,0,2.3526,2.3659,2.37,2.3812,2.3881,2.3908,2.3972,2.4034,2.4075,2.4139,2.4184,2.4257,2.4252,2.4282,2.4328,2.4377,2.4428,2.4372,2.4463,2.4465,2.4442,2.4522,2.4522,2.4595,2.45,2.4502,2.4504,0,2.3634,2.3703,2.3821,2.3902,2.3932,2.3989,2.4068,2.4129,2.42,2.4226,2.428,2.4306,2.4383,2.4362,2.4469,2.443,2.447,2.4499,2.4503,2.4513,2.4487,2.4533,2.4619,2.463,2.4521,2.452,2.4519,0,2.3666,2.3788,2.3874,2.391,2.4007,2.4046,2.4088,2.4157,2.4204,2.4273,2.4303,2.438,2.4422,2.448,2.4525,2.4505,2.4628,2.461,2.4651,2.465,2.4676,2.4673,2.4769,2.4702,2.4702,2.4702,2.4701,0,2.3747,2.3818,2.389,2.3943,2.4023,2.4069,2.4147,2.419,2.4251,2.4312,2.4341,2.4398,2.4453,2.4518,2.4553,2.4636,2.4655,2.4678,2.4686,2.4675,2.4672,2.4701,2.4697,2.4705,2.4704,2.4703,2.4703,0,2.3796,2.3847,2.3943,2.4026,2.4048,2.4103,2.4174,2.4226,2.4268,2.4345,2.4366,2.443,2.4507,2.4558,2.4656,2.468,2.4769,2.4777,2.4745,2.4749,2.4787,2.4782,2.4904,2.4922,2.4844,2.4844,2.4845,0,2.3845,2.39,2.3989,2.4032,2.4074,2.4143,2.419,2.4238,2.4286,2.437,2.4412,2.449,2.4556,2.4677,2.4732,2.4807,2.4816,2.4854,2.4828,2.4814,2.4816,2.4811,2.4817,2.4857,2.4858,2.4859,2.4859,0,2.3925,2.3947,2.4015,2.4091,2.4146,2.4208,2.4271,2.4304,2.4362,2.4415,2.4494,2.4544,2.4644,2.4721,2.4801,2.4844,2.4861,2.4867,2.488,2.4869,2.4848,2.4858,2.4756,2.4864,2.4863,2.4863,2.4863,2.4862,2.3975,2.4025,2.4094,2.4168,2.422,2.4277,2.433,2.4377,2.4443,2.4528,2.4552,2.4634,2.4702,2.4811,2.4855,2.4919,2.4915,2.4934,2.4939,2.4943,2.4942,2.4838,2.4934,2.4933,2.4933,2.4933,2.4933,0,2.4056,2.4102,2.4169,2.4255,2.4313,2.4324,2.4393,2.444,2.4512,2.4574,2.4637,2.4727,2.4801,2.4862,2.4939,2.4978,2.4988,2.4997,2.4994,2.5003,2.4942,2.4923,2.4988,2.4988,2.4988,2.4988,2.4988,2.4988,2.4105,2.4189,2.4219,2.4329,2.4374,2.4454,2.4493,2.4545,2.4595,2.4693,2.4756,2.4795,2.4856,2.4937,2.5006,2.5022,2.5048,2.5055,2.5073,2.5014,2.5008,2.5002,2.4984,2.5061,2.5061,2.5129,2.5129,2.513]}]]